Weather History for Artesia, NM

Change the Weather History Date:

Wednesday, May 13, 2009

  Actual Average Record
Temperature  
Mean Temperature 75 °F -  
Max Temperature 95 °F 84 °F 102 °F (2003)
Min Temperature 55 °F 48 °F 37 °F (1971)
Cooling Degree Days 10    
Growing Degree Days 25 (Base 50)    
Moisture  
Dew Point 31 °F    
Average Humidity 31    
Maximum Humidity 77    
Minimum Humidity 4    
Precipitation  
Precipitation 0.00 in - - ()
Sea Level Pressure  
Sea Level Pressure 29.82 in    
Wind  
Wind Speed 8 mph (SE)    
Max Wind Speed 14 mph    
Max Gust Speed 20 mph    
Visibility 10 miles    
Events      
Averages and records for this station are not official NWS values.
T = Trace of Precipitation, MM = Missing Value Source: NWS Daily Summary

Daily Weather History Graph

Daily Weather History Graph

Search for Another Location

Airport:

Trip Planner

Search our weather history database for the weather conditions in past years. The results will help you decide how hot, cold, wet, or windy it might be!

Date:

Astronomy

May. 13, 2009 Rise Set
Actual Time 6:00 AM MDT 7:48 PM MDT
Civil Twilight 5:32 AM MDT 8:15 PM MDT
Nautical Twilight 5:00 AM MDT 8:48 PM MDT
Astronomical Twilight 4:25 AM MDT 9:23 PM MDT
Moon No Moon Rise 9:19 AM MDT (5/13)
Length of Visible Light 14h 42m
Length of Day
13h 48m
Waning Gibbous, 81% of the Moon is Illuminated
May 13
Waning Gibbous
May 17
Last Quarter
May 24
New
May 30
First Quarter
Jun 7
Full

Hourly Weather History & Observations

Time (MDT) Temp. Dew Point Humidity Pressure Visibility Wind Dir Wind Speed Gust Speed Precip Events Conditions
12:10 AM 68.0 °F 19.4 °F 16% 29.76 in 10.0 mi WSW 10.4 mph - N/A   Clear
12:30 AM 68.0 °F 17.6 °F 15% 29.76 in 10.0 mi WSW 10.4 mph - N/A   Clear
12:50 AM 73.4 °F 15.8 °F 11% 29.76 in 10.0 mi West 13.8 mph - N/A   Clear
1:10 AM 69.8 °F 19.4 °F 15% 29.76 in 10.0 mi South 6.9 mph - N/A   Clear
1:30 AM 62.6 °F 17.6 °F 18% 29.76 in 10.0 mi SE 9.2 mph - N/A   Clear
1:50 AM 64.4 °F 17.6 °F 16% 29.77 in 10.0 mi SE 12.7 mph - N/A   Clear
2:10 AM 64.4 °F 26.6 °F 24% 29.78 in 10.0 mi SE 8.1 mph 17.3 mph N/A   Clear
2:30 AM 64.4 °F 42.8 °F 45% 29.78 in 10.0 mi SE 11.5 mph - N/A   Clear
2:50 AM 62.6 °F 46.4 °F 55% 29.78 in 10.0 mi SE 6.9 mph - N/A   Clear
3:10 AM 60.8 °F 46.4 °F 59% 29.78 in 10.0 mi SE 6.9 mph - N/A   Clear
3:30 AM 59.0 °F 48.2 °F 67% 29.78 in 10.0 mi SSE 8.1 mph - N/A   Clear
3:50 AM 59.0 °F 48.2 °F 67% 29.78 in 10.0 mi SSE 9.2 mph - N/A   Clear
4:10 AM 59.0 °F 48.2 °F 67% 29.79 in 10.0 mi SSE 5.8 mph - N/A   Clear
4:30 AM 57.2 °F 48.2 °F 72% 29.79 in 10.0 mi SSE 6.9 mph - N/A   Clear
4:50 AM 59.0 °F 50.0 °F 72% 29.80 in 10.0 mi South 11.5 mph - N/A   Clear
5:10 AM 57.2 °F 50.0 °F 77% 29.80 in 10.0 mi South 10.4 mph - N/A   Clear
5:30 AM 57.2 °F 50.0 °F 77% 29.81 in 10.0 mi South 9.2 mph - N/A   Clear
5:50 AM 55.4 °F 48.2 °F 77% 29.82 in 10.0 mi South 3.5 mph - N/A   Clear
6:10 AM 55.4 °F 48.2 °F 77% 29.82 in 10.0 mi Calm Calm - N/A   Clear
6:30 AM 55.4 °F 48.2 °F 77% 29.84 in 10.0 mi Calm Calm - N/A   Clear
6:50 AM 57.2 °F 50.0 °F 77% 29.84 in 10.0 mi SSW 8.1 mph - N/A   Clear
7:10 AM 59.0 °F 50.0 °F 72% 29.85 in 10.0 mi SSW 6.9 mph - N/A   Clear
7:30 AM 62.6 °F 51.8 °F 68% 29.85 in 10.0 mi South 6.9 mph - N/A   Clear
7:50 AM 66.2 °F 48.2 °F 52% 29.87 in 10.0 mi Calm Calm - N/A   Clear
8:10 AM 68.0 °F 48.2 °F 49% 29.87 in 10.0 mi South 3.5 mph - N/A   Clear
8:30 AM 69.8 °F 48.2 °F 46% 29.88 in 10.0 mi Calm Calm - N/A   Clear
8:50 AM 71.6 °F 50.0 °F 46% 29.88 in 10.0 mi East 3.5 mph - N/A   Clear
9:10 AM 73.4 °F 50.0 °F 44% 29.88 in 10.0 mi ENE 3.5 mph - N/A   Clear
9:30 AM 75.2 °F 46.4 °F 36% 29.88 in 10.0 mi ENE 3.5 mph - N/A   Clear
9:50 AM 78.8 °F 44.6 °F 30% 29.88 in 10.0 mi Calm Calm - N/A   Clear
10:10 AM 80.6 °F 41.0 °F 24% 29.88 in 10.0 mi SE 3.5 mph - N/A   Clear
10:30 AM 84.2 °F 32.0 °F 15% 29.88 in 10.0 mi WNW 3.5 mph - N/A   Clear
10:50 AM 86.0 °F 17.6 °F 8% 29.88 in 10.0 mi SW 3.5 mph - N/A   Clear
11:10 AM 87.8 °F 24.8 °F 10% 29.88 in 10.0 mi ENE 5.8 mph - N/A   Clear
11:30 AM 87.8 °F 23.0 °F 9% 29.88 in 10.0 mi ESE 5.8 mph - N/A   Clear
11:50 AM 89.6 °F 21.2 °F 8% 29.87 in 10.0 mi ESE 9.2 mph - N/A   Clear
12:10 PM 89.6 °F 17.6 °F 7% 29.86 in 10.0 mi SSE 8.1 mph 16.1 mph N/A   Clear
12:30 PM 91.4 °F 15.8 °F 6% 29.86 in 10.0 mi SSW 10.4 mph - N/A   Clear
12:50 PM 91.4 °F 14.0 °F 6% 29.86 in 10.0 mi WSW 5.8 mph 16.1 mph N/A   Clear
1:10 PM 91.4 °F 19.4 °F 7% 29.85 in 10.0 mi East 12.7 mph 19.6 mph N/A   Clear
1:30 PM 91.4 °F 17.6 °F 7% 29.84 in 10.0 mi NE 8.1 mph - N/A   Clear
1:50 PM 91.4 °F 17.6 °F 7% 29.83 in 10.0 mi NE 4.6 mph - N/A   Clear
2:10 PM 91.4 °F 17.6 °F 7% 29.83 in 10.0 mi East 11.5 mph 17.3 mph N/A   Clear
2:30 PM 93.2 °F 17.6 °F 6% 29.82 in 10.0 mi ESE 10.4 mph - N/A   Clear
2:50 PM 93.2 °F 17.6 °F 6% 29.81 in 10.0 mi East 9.2 mph 16.1 mph N/A   Clear
3:10 PM 93.2 °F 17.6 °F 6% 29.80 in 10.0 mi SE 11.5 mph 18.4 mph N/A   Clear
3:30 PM 93.2 °F 15.8 °F 6% 29.79 in 10.0 mi NNW 6.9 mph - N/A   Clear
3:50 PM 93.2 °F 15.8 °F 6% 29.78 in 10.0 mi WNW 3.5 mph - N/A   Clear
4:10 PM 95.0 °F 15.8 °F 6% 29.78 in 10.0 mi ESE 6.9 mph - N/A   Clear
4:30 PM 93.2 °F 15.8 °F 6% 29.78 in 10.0 mi NNE 9.2 mph - N/A   Clear
4:50 PM 95.0 °F 14.0 °F 5% 29.77 in 10.0 mi NNE 5.8 mph 16.1 mph N/A   Clear
5:10 PM 95.0 °F 15.8 °F 6% 29.77 in 10.0 mi East 11.5 mph - N/A   Clear
5:30 PM 95.0 °F 15.8 °F 6% 29.77 in 10.0 mi ENE 4.6 mph - N/A   Clear
5:50 PM 95.0 °F 12.2 °F 5% 29.77 in 10.0 mi SE 3.5 mph - N/A   Clear
6:10 PM 95.0 °F 10.4 °F 4% 29.77 in 10.0 mi NW 3.5 mph - N/A   Clear
6:30 PM 95.0 °F 14.0 °F 5% 29.76 in 10.0 mi SE 4.6 mph - N/A   Clear
6:50 PM 93.2 °F 12.2 °F 5% 29.76 in 10.0 mi ESE 5.8 mph - N/A   Clear
7:10 PM 93.2 °F 14.0 °F 5% 29.77 in 10.0 mi ESE 5.8 mph - N/A   Clear
7:30 PM 91.4 °F 15.8 °F 6% 29.77 in 10.0 mi Calm Calm - N/A   Clear
7:50 PM 89.6 °F 8.6 °F 5% 29.78 in 10.0 mi WSW 12.7 mph - N/A   Clear
8:10 PM 84.2 °F 6.8 °F 5% 29.80 in 10.0 mi WSW 10.4 mph - N/A   Clear
8:30 PM 82.4 °F 10.4 °F 7% 29.81 in 10.0 mi WSW 9.2 mph - N/A   Clear
8:50 PM 82.4 °F 12.2 °F 7% 29.82 in 10.0 mi WSW 13.8 mph - N/A   Clear
9:10 PM 80.6 °F 12.2 °F 8% 29.83 in 10.0 mi WSW 12.7 mph - N/A   Clear
9:30 PM 80.6 °F 12.2 °F 8% 29.83 in 10.0 mi WSW 13.8 mph - N/A   Clear
9:50 PM 77.0 °F 12.2 °F 9% 29.84 in 10.0 mi WSW 13.8 mph - N/A   Clear
10:10 PM 75.2 °F 10.4 °F 8% 29.85 in 10.0 mi WSW 12.7 mph - N/A   Clear
10:30 PM 75.2 °F 10.4 °F 8% 29.86 in 10.0 mi WSW 12.7 mph - N/A   Clear
10:50 PM 75.2 °F 10.4 °F 8% 29.86 in 10.0 mi West 16.1 mph - N/A   Clear
11:10 PM 75.2 °F 10.4 °F 8% 29.87 in 10.0 mi West 13.8 mph - N/A   Clear
11:30 PM 73.4 °F 10.4 °F 9% 29.87 in 10.0 mi West 15.0 mph - N/A   Clear
11:50 PM 71.6 °F 10.4 °F 9% 29.87 in 10.0 mi West 15.0 mph - N/A   Clear